User: anonymous   Login
Location: Camp Creek
(33.9000°N, 111.8167°W)
Time: 03:18:22
(UTC-07:00)
Language:

DELTA 2 R/B (1) - Orbit

View from above orbital plane
View from above orbital plane
View from above satellite
View from above satellite

Ground track
Ground track

The orbit data is extracted from the following two-line orbital elements,

1 27665U 03005C   17147.65742220 -.00000036 +00000-0 +19606-4 0  9998
2 27665 039.5750 214.7985 0007834 136.4642 356.4479 14.28444661747995
Epoch (UTC): 27 May 2017 15:46:41
Eccentricity: 0.0007834
inclination: 39.5750°
perigee height: 791 km
apogee height: 802 km
right ascension of ascending node: 214.7985°
argument of perigee: 136.4642°
revolutions per day: 14.28444661
mean anomaly at epoch: 356.4479°
orbit number at epoch: 74799

The dashed part of the orbit path shows where the satellite is in the earth's shadow,  

DLR